Wind_Speed
36 35 33 31 31 33 34 33 30 29 21 9 5 4 7 5 7 13 13 13 14 16 18 20 20 20 19 16 14 13 10 14 20 22 26 29 24 20 13 10 8 13 15 10
32 32 33 33 31 32 30 29 23 10 5 7 6 8 10 10 11 15 15 11 14 17 20 19 18 20 19 17 14 12 10 14 21 24 27 31 30 27 20 11 13 15 11 13
31 33 30 29 27 27 21 12 8 6 9 9 10 10 12 11 12 17 15 17 14 18 21 22 20 21 22 17 15 11 9 13 20 23 26 32 30 27 20 16 18 18 17 18
29 28 28 27 24 16 11 10 10 8 10 9 11 11 14 15 14 15 17 19 17 19 20 20 22 22 21 21 17 15 10 13 20 24 25 29 30 26 24 21 18 22 21 25
26 28 26 20 16 13 11 12 12 11 12 12 13 12 12 17 18 14 18 19 21 19 18 20 17 17 15 17 16 13 9 11 19 24 23 29 31 27 26 24 20 26 27 23
22 21 17 17 15 16 17 16 14 14 17 13 13 14 11 15 18 19 22 23 24 21 19 18 15 9 14 22 23 20 14 9 14 23 26 30 32 28 27 26 24 26 29 15
21 21 20 18 17 17 16 16 17 20 20 18 19 18 19 18 18 21 23 27 25 22 21 19 17 15 16 18 21 25 15 14 12 15 25 31 35 28 31 26 25 26 16 21
17 19 19 18 18 16 20 21 22 24 26 25 25 25 25 24 24 23 20 25 27 24 21 20 16 13 19 24 24 15 19 24 15 14 21 31 36 31 31 30 28 30 32 30
17 19 20 20 19 23 24 25 28 30 31 31 31 29 28 29 29 27 26 26 28 28 21 19 11 11 23 29 23 31 27 22 14 17 17 26 36 35 32 32 31 28 35 34
19 21 23 25 26 27 28 29 31 33 33 34 35 34 35 34 34 33 32 32 30 30 27 21 20 21 30 31 30 28 29 30 22 13 19 27 36 40 36 32 33 35 36 27
21 24 27 27 28 31 32 33 36 37 36 38 38 39 41 42 41 40 39 39 35 35 30 29 35 27 26 29 29 24 20 26 23 16 15 24 32 39 42 37 37 39 38 36
28 30 30 31 32 36 39 40 42 45 44 42 42 44 47 46 47 46 44 45 42 42 37 32 36 36 26 23 25 18 13 17 19 15 16 20 24 39 40 43 37 39 39 36
29 33 35 40 43 43 45 46 47 47 48 49 48 47 49 54 54 48 45 43 42 45 40 37 37 43 44 35 31 25 21 26 29 26 21 17 23 27 40 45 41 37 36 36
38 40 42 44 48 52 53 53 53 54 53 51 51 51 55 55 55 54 48 47 46 45 45 44 40 41 46 42 35 28 29 22 23 30 35 31 22 25 33 43 42 40 45 43
43 45 47 48 50 52 54 58 61 61 60 57 58 57 56 53 52 53 51 49 50 48 46 46 47 43 45 50 50 40 35 48 39 18 34 28 29 26 30 43 50 39 39 40
44 46 49 52 54 56 59 65 61 63 64 62 61 60 56 55 56 56 54 49 44 45 46 47 46 45 45 47 51 52 49 50 51 51 45 34 29 31 33 38 55 52 39 40
45 50 52 52 57 59 61 70 70 69 65 63 61 62 59 57 57 55 53 50 48 51 50 51 52 55 55 54 51 51 55 52 49 56 49 43 37 37 40 42 47 56 52 46
52 55 56 58 61 62 63 67 68 65 62 64 64 66 66 65 63 62 61 59 59 59 62 59 58 60 62 61 57 57 58 58 56 54 53 50 39 39 40 46 48 56 59 54
57 59 60 60 62 63 61 62 64 64 63 64 67 69 71 73 72 69 68 67 68 68 66 69 70 69 69 66 62 63 64 64 58 61 60 51 47 42 41 45 48 50 58 61
60 60 61 58 57 59 63 68 72 72 71 74 74 76 77 76 75 77 78 78 77 77 77 77 76 77 77 73 68 65 63 66 61 66 63 53 52 46 47 43 50 53 51 57
53 53 56 60 63 65 67 70 72 74 74 77 79 80 84 85 86 83 82 79 78 77 77 77 75 73 73 73 75 75 68 65 62 63 63 59 54 52 51 47 45 53 53 52
52 58 62 65 65 65 66 68 72 75 77 80 84 86 83 77 72 67 62 60 60 60 58 58 57 57 61 65 71 73 71 65 63 66 66 67 63 57 53 50 47 49 50 47
55 62 64 64 64 65 68 71 75 79 81 81 76 70 59 53 50 48 46 44 44 45 47 48 47 47 52 59 65 71 70 70 66 65 65 69 66 64 56 57 51 49 43 45
60 65 62 62 66 72 76 75 74 71 66 61 56 52 52 48 45 42 43 42 42 43 43 43 44 46 49 55 62 65 65 67 70 65 65 68 69 68 61 53 53 48 50 41
64 69 66 68 73 77 76 68 58 51 45 42 44 47 48 47 47 47 45 45 45 44 44 42 41 40 45 52 55 58 62 65 70 67 65 67 68 68 64 52 53 56 48 50
68 69 70 76 78 72 60 51 42 39 40 41 40 43 46 48 48 51 52 53 54 51 48 46 44 41 43 45 48 49 52 59 68 69 68 69 69 68 67 60 55 57 59 50
Wind_Direction
266 269 271 272 273 276 277 277 278 279 281 260 249 287 289 314 312 305 305 312 316 323 328 327 328 328 337 327 312 304 290 226 209 202 199 195 200 207 203 214 178 159 163 188
265 269 271 272 276 276 277 279 276 254 217 237 248 261 281 305 310 300 297 315 321 328 323 326 333 334 336 335 328 315 294 218 207 199 200 197 200 203 196 188 177 166 167 175
266 268 269 269 271 274 273 257 228 197 209 220 238 253 272 287 290 293 312 318 329 322 319 325 336 341 340 343 343 326 294 226 210 202 200 198 199 201 208 200 189 180 190 179
262 263 262 266 266 252 240 230 231 222 232 228 251 278 290 294 299 317 322 318 320 310 315 327 335 339 349 350 355 336 312 230 213 207 200 200 199 199 208 207 199 188 183 180
262 265 267 255 229 220 223 232 235 233 242 257 271 271 291 298 307 319 312 311 307 311 316 316 328 343 11 11 353 350 320 267 230 216 204 200 201 200 203 200 203 187 183 183
253 251 241 233 227 225 222 224 242 252 255 262 272 276 285 293 304 310 301 298 299 303 303 310 322 336 343 353 351 344 329 277 239 234 214 202 201 204 195 196 202 203 193 194
218 224 227 233 237 241 244 245 251 256 261 261 263 270 278 285 284 280 282 289 292 296 305 312 312 304 305 320 326 330 316 313 268 238 227 208 204 205 198 201 192 190 187 214
215 228 232 238 240 248 252 258 266 269 270 271 272 278 282 282 277 274 272 280 287 291 296 299 295 299 272 302 304 311 313 316 295 258 230 212 204 211 203 203 203 200 208 201
226 236 242 246 249 258 267 272 273 276 280 284 286 285 284 281 280 283 283 279 279 284 285 283 294 314 281 282 288 300 291 309 285 280 239 222 216 210 208 207 212 208 212 213
232 243 251 258 262 264 268 274 279 281 285 287 290 292 289 287 288 286 284 279 278 278 277 263 253 252 276 270 275 291 275 284 281 265 256 232 220 214 212 207 205 216 210 201
249 255 264 268 275 279 282 281 281 282 284 288 290 290 289 289 287 285 283 281 281 277 267 259 252 242 248 254 266 288 257 279 292 265 244 234 224 217 214 208 214 212 207 212
251 257 261 268 274 276 276 276 278 281 282 283 289 292 291 290 285 284 284 283 279 271 262 248 240 234 238 251 261 261 278 261 266 276 273 239 233 224 219 216 213 221 215 218
274 276 279 282 278 277 277 278 279 281 286 289 290 290 292 291 289 285 281 278 275 273 269 260 241 237 245 247 243 244 237 282 262 249 266 261 244 231 222 220 215 218 213 220
273 278 282 284 286 286 286 284 284 285 288 290 290 288 289 289 289 286 283 279 275 272 269 265 256 240 239 236 235 219 221 228 254 266 252 263 261 236 226 219 213 213 218 222
277 279 280 281 281 283 286 287 289 290 290 289 291 290 289 287 284 282 282 279 277 272 269 264 259 250 242 234 230 224 226 223 234 270 267 253 251 238 228 221 214 210 218 227
278 282 283 285 286 287 287 287 290 292 293 292 290 290 289 287 286 284 283 279 269 266 267 265 259 253 247 241 238 232 233 234 230 225 241 242 245 235 228 224 220 212 208 227
278 278 281 284 285 288 292 292 293 293 293 292 291 291 289 288 288 285 282 276 271 268 260 255 254 253 248 242 240 235 231 234 234 237 240 236 240 229 225 222 224 221 217 223
281 284 286 288 288 288 288 288 288 289 289 290 291 292 292 290 287 285 282 278 275 272 272 264 256 256 255 250 235 236 237 234 235 236 238 234 226 228 225 221 223 223 222 224
287 289 290 290 290 290 289 288 288 288 289 289 288 287 288 289 287 284 281 279 277 273 267 264 265 263 262 258 247 238 233 233 232 234 228 228 223 226 224 224 225 224 228 230
291 292 293 293 292 292 292 293 293 293 293 291 290 289 287 286 285 283 280 278 275 272 269 269 267 264 260 255 249 245 236 231 231 236 225 223 220 221 222 221 222 223 227 228
295 295 296 295 295 294 293 291 289 289 288 289 289 288 287 287 285 282 280 278 275 272 270 269 267 263 257 249 243 240 238 225 222 232 229 224 223 221 223 219 222 224 225 225
300 302 301 299 297 294 292 290 290 291 291 289 288 288 288 287 284 280 275 272 269 267 265 262 260 259 255 248 243 240 236 229 222 226 225 227 226 218 220 219 222 222 225 228
308 305 300 298 299 298 296 295 295 294 292 291 290 290 287 285 284 283 279 274 270 263 258 257 256 256 253 250 244 238 229 227 222 223 225 224 222 218 216 216 217 212 220 226
310 311 305 303 303 302 301 300 297 295 293 292 290 288 289 287 284 278 275 272 268 264 259 255 252 251 252 250 245 241 232 222 221 219 222 221 221 218 213 215 214 208 204 213
308 313 309 308 308 305 305 301 299 295 291 287 286 285 287 287 286 284 280 275 269 264 263 260 254 247 245 249 247 239 234 220 219 218 216 218 219 219 210 209 207 205 204 205
310 313 311 310 310 308 305 301 300 294 292 291 289 287 287 282 278 276 272 270 269 267 263 259 258 252 245 245 248 243 230 221 215 214 214 213 217 215 211 202 201 190 190 204
Height
10947 10947 10947 10948 10947 10946 10945 10944 10945 10944 10943 10942 10942 10942 10942 10945 10943 10939 10938 10938 10935 10931 10929 10927 10924 10919 10915 10911 10906 10902 10900 10902 10908 10915 10920 10924 10927 10931 10935 10937 10939 10942 10943 10946
10942 10942 10941 10941 10942 10941 10940 10940 10941 10941 10941 10941 10942 10941 10942 10943 10941 10939 10938 10937 10933 10930 10927 10925 10921 10916 10912 10907 10902 10898 10897 10900 10904 10909 10914 10919 10924 10929 10931 10934 10938 10940 10942 10946
10936 10936 10937 10937 10937 10936 10935 10936 10937 10940 10941 10942 10942 10942 10942 10942 10939 10936 10935 10933 10931 10929 10925 10922 10919 10914 10909 10906 10901 10898 10896 10898 10902 10906 10909 10914 10920 10925 10928 10932 10935 10938 10942 10945
10930 10931 10930 10931 10931 10931 10934 10935 10936 10938 10939 10940 10940 10940 10939 10937 10937 10935 10932 10930 10928 10927 10923 10919 10915 10912 10908 10905 10902 10901 10899 10898 10900 10904 10908 10912 10917 10922 10925 10930 10933 10935 10938 10943
10924 10924 10925 10926 10927 10929 10932 10933 10933 10936 10937 10938 10938 10938 10937 10934 10933 10934 10931 10925 10922 10921 10918 10916 10913 10910 10907 10903 10901 10901 10901 10902 10902 10903 10905 10909 10913 10918 10922 10926 10930 10932 10937 10942
10919 10919 10921 10922 10924 10925 10927 10930 10931 10933 10933 10936 10936 10935 10936 10934 10932 10929 10924 10919 10916 10915 10915 10914 10915 10911 10909 10905 10904 10901 10901 10901 10902 10904 10904 10906 10910 10915 10919 10923 10927 10931 10936 10940
10914 10916 10918 10920 10922 10924 10926 10927 10928 10927 10929 10931 10930 10931 10930 10930 10927 10924 10920 10915 10913 10912 10913 10913 10912 10910 10905 10901 10902 10902 10899 10899 10899 10900 10903 10904 10908 10913 10917 10920 10925 10929 10933 10936
10913 10914 10916 10917 10919 10921 10921 10921 10921 10921 10921 10922 10924 10924 10924 10923 10920 10917 10916 10911 10909 10909 10909 10906 10906 10903 10897 10895 10899 10899 10896 10895 10896 10897 10899 10902 10905 10910 10913 10918 10922 10927 10930 10934
10910 10911 10912 10913 10915 10915 10915 10915 10913 10914 10914 10915 10916 10916 10915 10913 10912 10910 10907 10905 10903 10901 10902 10901 10900 10899 10897 10891 10892 10893 10891 10889 10889 10893 10894 10897 10902 10906 10909 10914 10919 10922 10926 10929
10907 10908 10907 10907 10908 10909 10909 10907 10906 10905 10905 10906 10906 10905 10903 10903 10902 10901 10898 10897 10895 10894 10894 10892 10891 10888 10888 10881 10884 10884 10885 10888 10886 10885 10890 10891 10894 10901 10906 10911 10914 10918 10921 10926
10903 10903 10902 10902 10901 10900 10900 10899 10897 10896 10898 10898 10898 10895 10891 10891 10891 10890 10887 10883 10883 10882 10885 10883 10879 10880 10875 10874 10876 10876 10877 10881 10882 10880 10883 10887 10889 10896 10901 10904 10909 10912 10916 10921
10897 10896 10896 10896 10896 10894 10891 10891 10889 10886 10887 10891 10890 10886 10878 10875 10874 10876 10875 10871 10869 10867 10868 10868 10868 10869 10868 10869 10867 10870 10873 10877 10879 10877 10877 10880 10882 10887 10894 10898 10902 10906 10911 10915
10889 10887 10887 10885 10884 10883 10881 10879 10877 10877 10878 10877 10878 10874 10866 10858 10854 10862 10860 10858 10854 10849 10853 10854 10855 10855 10855 10859 10863 10863 10867 10871 10870 10874 10873 10874 10878 10882 10887 10892 10896 10901 10904 10907
10882 10881 10879 10875 10870 10866 10863 10862 10862 10862 10865 10865 10859 10858 10852 10847 10839 10835 10841 10840 10839 10838 10837 10838 10841 10845 10844 10849 10850 10853 10857 10861 10862 10865 10868 10870 10874 10876 10879 10886 10890 10895 10897 10899
10873 10872 10869 10866 10861 10857 10852 10844 10843 10845 10844 10847 10840 10840 10838 10832 10825 10821 10822 10823 10820 10822 10822 10822 10823 10827 10830 10833 10835 10841 10846 10846 10854 10867 10861 10862 10864 10868 10872 10877 10883 10888 10891 10895
10863 10859 10856 10853 10848 10844 10839 10828 10832 10827 10823 10825 10823 10820 10818 10815 10810 10806 10805 10807 10806 10805 10806 10805 10806 10810 10812 10816 10820 10828 10833 10837 10841 10850 10848 10852 10853 10859 10863 10867 10873 10878 10883 10890
10855 10850 10846 10844 10836 10832 10826 10811 10810 10809 10807 10803 10801 10798 10799 10799 10795 10790 10787 10787 10787 10784 10785 10788 10788 10787 10792 10801 10807 10808 10813 10820 10827 10835 10837 10839 10843 10844 10849 10853 10857 10867 10872 10879
10841 10836 10833 10829 10823 10818 10814 10803 10796 10795 10792 10786 10781 10777 10774 10774 10775 10773 10769 10766 10765 10766 10765 10765 10766 10767 10769 10780 10790 10793 10797 10802 10808 10814 10819 10824 10829 10831 10837 10841 10849 10855 10864 10871
10825 10821 10817 10813 10807 10799 10795 10788 10780 10775 10775 10772 10766 10762 10755 10750 10748 10749 10746 10746 10745 10742 10743 10741 10743 10745 10745 10754 10768 10772 10776 10782 10788 10790 10797 10807 10813 10819 10823 10832 10842 10850 10854 10862
10809 10805 10799 10795 10791 10784 10773 10764 10756 10753 10752 10744 10739 10734 10731 10729 10726 10721 10718 10717 10715 10713 10711 10711 10714 10715 10718 10722 10735 10745 10755 10762 10768 10768 10782 10791 10798 10806 10810 10819 10829 10834 10842 10852
10795 10790 10785 10779 10773 10769 10760 10747 10737 10731 10730 10722 10715 10709 10701 10697 10692 10690 10685 10686 10684 10683 10683 10682 10682 10682 10686 10693 10702 10711 10724 10737 10748 10751 10764 10773 10783 10792 10798 10806 10816 10825 10833 10844
10781 10774 10767 10760 10754 10747 10740 10731 10720 10711 10704 10696 10688 10678 10674 10669 10662 10658 10657 10656 10656 10655 10654 10655 10657 10659 10659 10664 10676 10688 10699 10710 10726 10732 10742 10754 10766 10777 10785 10795 10803 10813 10824 10836
10770 10762 10752 10743 10735 10726 10717 10708 10701 10690 10677 10665 10660 10654 10650 10645 10640 10638 10636 10636 10636 10637 10637 10637 10639 10641 10641 10641 10648 10657 10673 10689 10700 10713 10724 10737 10750 10761 10771 10781 10792 10804 10816 10825
10753 10743 10735 10726 10715 10704 10693 10686 10675 10664 10653 10644 10638 10634 10629 10627 10625 10623 10621 10620 10619 10618 10619 10622 10624 10626 10625 10623 10626 10635 10651 10669 10680 10693 10706 10720 10733 10743 10757 10771 10784 10793 10804 10814
10735 10725 10715 10705 10695 10680 10669 10659 10652 10643 10637 10632 10626 10621 10616 10613 10609 10605 10604 10601 10600 10601 10601 10603 10606 10610 10609 10606 10609 10619 10631 10647 10661 10676 10689 10701 10714 10726 10743 10759 10770 10778 10789 10800
10720 10709 10697 10684 10671 10658 10646 10638 10637 10631 10625 10621 10617 10611 10604 10599 10596 10591 10588 10584 10582 10581 10583 10586 10589 10593 10594 10595 10595 10601 10615 10627 10643 10657 10670 10684 10697 10711 10729 10745 10754 10761 10768 10776